WetterOnline ( https://www.wetteronline.de )

Wetter aktuell Hoyerswerda

Aktuelles Wetter: Hoyerswerda (116m)

6-stündlich | Neueste Meldungen
Ortszeit Temperatur Wetter
Fr, 10.04. 2:00 3.9° C leicht bewölkt
Do, 09.04. 20:00 14.5° C wolkenlos
Do, 09.04. 14:00 18.6° C leicht bewölkt
Do, 09.04. 8:00 7.4° C wolkenlos
Do, 09.04. 2:00 4.2° C wolkenlos
Mi, 08.04. 20:00 18.1° C wolkenlos
Mi, 08.04. 14:00 21.3° C wolkenlos
Mi, 08.04. 8:00 8.7° C wolkenlos
Ortszeit Temperatur Wetter
Fr, 10.04. 3:00 2.9° C wolkig
Fr, 10.04. 2:50 2.9° C wolkig
Fr, 10.04. 2:40 2.8° C wolkig
Fr, 10.04. 2:30 3.6° C wolkig
Fr, 10.04. 2:20 3.6° C wolkig
Fr, 10.04. 2:10 4.2° C leicht bewölkt
Fr, 10.04. 2:00 3.9° C leicht bewölkt
Fr, 10.04. 1:30 4.8° C leicht bewölkt
Fr, 10.04. 1:00 4.0° C leicht bewölkt
Fr, 10.04. 0:30 5.1° C wolkig
Fr, 10.04. 0:00 6.3° C leicht bewölkt
Ortszeit Relative Feuchte Sichtweite
Fr, 10.04. 2:00 92% 22 km
Do, 09.04. 20:00 52% 60 km
Do, 09.04. 14:00 42% 35 km
Do, 09.04. 8:00 66% 45 km
Do, 09.04. 2:00 65% 35 km
Mi, 08.04. 20:00 17% 50 km
Mi, 08.04. 14:00 17% 50 km
Mi, 08.04. 8:00 68% 45 km
Ortszeit Relative Feuchte Sichtweite
Fr, 10.04. 3:00 96% 35 km
Fr, 10.04. 2:50 96% -
Fr, 10.04. 2:40 92% -
Fr, 10.04. 2:30 94% 30 km
Fr, 10.04. 2:20 94% -
Fr, 10.04. 2:10 93% -
Fr, 10.04. 2:00 92% 22 km
Fr, 10.04. 1:30 90% 35 km
Fr, 10.04. 1:00 89% 35 km
Fr, 10.04. 0:30 87% 40 km
Fr, 10.04. 0:00 81% 29 km
Ortszeit Niederschlagsmenge Niederschlagsart
Fr, 10.04. 2:00 0.0 l/m2 in 6 Std. -
Do, 09.04. 20:00 0.0 l/m2 in 12 Std. -
Do, 09.04. 14:00 0.0 l/m2 in 6 Std. -
Do, 09.04. 8:00 0.0 l/m2 in 12 Std. -
Do, 09.04. 2:00 0.0 l/m2 in 6 Std. -
Mi, 08.04. 20:00 0.0 l/m2 in 12 Std. -
Mi, 08.04. 14:00 0.0 l/m2 in 6 Std. -
Mi, 08.04. 8:00 0.0 l/m2 in 12 Std. -
Ortszeit Niederschlagsmenge Niederschlagsart
Fr, 10.04. 3:00 0.0 l/m2 in 1 Std. -
Fr, 10.04. 2:50 keine Meldung -
Fr, 10.04. 2:40 keine Meldung -
Fr, 10.04. 2:30 0.0 l/m2 in 1 Std. -
Fr, 10.04. 2:20 keine Meldung -
Fr, 10.04. 2:10 keine Meldung -
Fr, 10.04. 2:00 0.0 l/m2 in 1 Std. -
Fr, 10.04. 1:30 0.0 l/m2 in 1 Std. -
Fr, 10.04. 1:00 0.0 l/m2 in 1 Std. -
Fr, 10.04. 0:30 0.0 l/m2 in 1 Std. -
Fr, 10.04. 0:00 0.0 l/m2 in 1 Std. -
Ortszeit Stärke Spitze Richtung
km/h Bft. km/h Grad Sektor
Fr, 10.04. 2:00 4 1 18 310° NW
Do, 09.04. 20:00 15 3 43 320° NW
Do, 09.04. 14:00 18 3 29 330° NW
Do, 09.04. 8:00 2 1 7 230° SW
Do, 09.04. 2:00 4 1 11 120° SO
Mi, 08.04. 20:00 7 2 29 120° SO
Mi, 08.04. 14:00 14 3 36 130° SO
Mi, 08.04. 8:00 11 2 22 100° O
Ortszeit Stärke Spitze Richtung
km/h Bft. km/h Grad Sektor
Fr, 10.04. 3:00 4 1 7 330° NW
Fr, 10.04. 2:50 4 1 - 330° NW
Fr, 10.04. 2:40 4 1 - 330° NW
Fr, 10.04. 2:30 4 1 7 340° N
Fr, 10.04. 2:20 4 1 - 340° N
Fr, 10.04. 2:10 4 1 - 320° NW
Fr, 10.04. 2:00 4 1 7 310° NW
Fr, 10.04. 1:30 0 0 4 - -
Fr, 10.04. 1:00 4 1 7 260° W
Fr, 10.04. 0:30 0 0 7 - -
Fr, 10.04. 0:00 6 1 11 30° NO
Ortszeit Untergrenze Bedeckung Gattung
total tief tief mittel hoch
Fr, 10.04. 2:00 1800 m 4/8 2/8 - - -
Do, 09.04. 20:00 - 0/8 0/8 - - -
Do, 09.04. 14:00 1800 m 4/8 4/8 - - -
Do, 09.04. 8:00 - 0/8 0/8 - - -
Do, 09.04. 2:00 - 0/8 0/8 - - -
Mi, 08.04. 20:00 - 0/8 0/8 - - -
Mi, 08.04. 14:00 - 0/8 0/8 - - -
Mi, 08.04. 8:00 - 0/8 0/8 - - -
Ortszeit Bedeckungsgrad in Achtel und Wolkenuntergrenze
Fr, 10.04. 3:00 8(7500m) 8(9000m)
Fr, 10.04. 2:50 8(7500m) 8(9000m)
Fr, 10.04. 2:40 7(7800m) 7(9000m)
Fr, 10.04. 2:30 7(7500m) 7(8100m) 7(9000m)
Fr, 10.04. 2:20 7(7500m) 7(8100m) 7(9000m)
Fr, 10.04. 2:10 4(7500m) 5(8400m) 5(9000m)
Fr, 10.04. 2:00 2(1800m) 4(8400m) 6(9000m)
Fr, 10.04. 1:30 1(1800m) 3(7500m)
Fr, 10.04. 1:00 3(9000m)
Fr, 10.04. 0:30 7(9000m) 6(9000m)
Fr, 10.04. 0:00 5(9000m) 6(9000m)
Ortszeit Luftdruck NN (hPa) Tendenz (hPa in 3 Std.)
Fr, 10.04. 2:00 1027 + 0,9
Do, 09.04. 20:00 1023 + 0,9
Do, 09.04. 14:00 1023 + 0,1
Do, 09.04. 8:00 1022 + 0,8
Do, 09.04. 2:00 1022 - 0,7
Mi, 08.04. 20:00 1022 - 1,2
Mi, 08.04. 14:00 1026 - 2,6
Mi, 08.04. 8:00 1030 - 0,6
Ortszeit Luftdruck NN (hPa) Tendenz (hPa in 3 Std.)
Fr, 10.04. 3:00 1027 + 0,3
Fr, 10.04. 2:50 1027 keine Meldung
Fr, 10.04. 2:40 1027 keine Meldung
Fr, 10.04. 2:30 1026 + 0,7
Fr, 10.04. 2:20 1026 keine Meldung
Fr, 10.04. 2:10 1026 keine Meldung
Fr, 10.04. 2:00 1027 + 0,9
Fr, 10.04. 1:30 1027 + 1,1
Fr, 10.04. 1:00 1026 + 1,1
Fr, 10.04. 0:30 1026 + 1,2
Fr, 10.04. 0:00 1026 + 1,3
Ortszeit Schneehöhe (cm)
Fr, 10.04. 2:00 0
Do, 09.04. 20:00 0
Do, 09.04. 14:00 0
Do, 09.04. 8:00 0
Do, 09.04. 2:00 0
Mi, 08.04. 20:00 0
Mi, 08.04. 14:00 0
Mi, 08.04. 8:00 0
Ortszeit Schneehöhe (cm)
Fr, 10.04. 3:00 0
Fr, 10.04. 2:50 0
Fr, 10.04. 2:40 0
Fr, 10.04. 2:30 0
Fr, 10.04. 2:20 0
Fr, 10.04. 2:10 0
Fr, 10.04. 2:00 0
Fr, 10.04. 1:30 0
Fr, 10.04. 1:00 0
Fr, 10.04. 0:30 0
Fr, 10.04. 0:00 0
Link zu dieser Seite / Seite empfehlen

Das Wetter in ...